Regional Weather Roundup
Issued by NWS

Home | Current Version | Previous Version | Graphics & Text | Print | Product List | Glossary On
Versions: 1 2 3 4 5 6 7 8 9 10 11 12 13 14 15 16 17 18 19 20 21 22 23 24 25 26 27 28 29 30 31 32 33 34 35 36 37 38 39 40 41 42 43 44 45 46 47 48 49 50
000
ASUS45 KCYS 011810
RWRWY

WYOMING REGIONAL WEATHER ROUNDUP
NATIONAL WEATHER SERVICE CHEYENNE WY
1200 PM MDT FRI AUG 01 2014

NOTE:  "FAIR" INDICATES FEW OR NO CLOUDS BELOW 12,000 FEET
WITH NO SIGNIFICANT WEATHER AND/OR OBSTRUCTIONS TO VISIBILITY.

WYZ001-011900-
YELLOWSTONE NATIONAL PARK

CITY           SKY/WX    TMP DP  RH WIND       PRES   REMARKS
LK YELLOWSTONE   N/A     70  36  28 VRB3      30.45F
6HR MIN TEMP:  37; 6HR MAX TEMP:  70;

W YELLOWSTONE  NOT AVBL

$$
WYZ002>013-054>058-071-098>099-011900-
NORTHERN WYOMING

CITY           SKY/WX    TMP DP  RH WIND       PRES   REMARKS
JACKSON        SUNNY     73  41  31 CALM      30.33F
CODY           SUNNY     79  43  27 NE7       30.25F
GREYBULL       SUNNY     83  39  21 VRB3      30.16F
6HR MIN TEMP:  57; 6HR MAX TEMP:  84;

WORLAND        SUNNY     82  41  23 CALM      30.18F
6HR MIN TEMP:  57; 6HR MAX TEMP:  82;

SHERIDAN       MOSUNNY   88  40  18 NW9G16    30.17S
6HR MIN TEMP:  55; 6HR MAX TEMP:  89;

BUFFALO        MOSUNNY   84  37  18 N12       30.24R
6HR MIN TEMP:  60; 6HR MAX TEMP:  85;

GILLETTE       MOSUNNY   87  41  19 VRB6      30.18S
6HR MIN TEMP:  63; 6HR MAX TEMP:  87;

HULETT         FAIR      82  46  28 MISG      30.18
NEWCASTLE      FAIR      84  36  17 N3        30.18

$$
WYZ014>020-022>026-101>103-011900-
CENTRAL WYOMING

CITY           SKY/WX    TMP DP  RH WIND       PRES   REMARKS
BIG PINEY      MOSUNNY   74  34  23 SW7       30.38F
6HR MIN TEMP:  47; 6HR MAX TEMP:  74;

PINEDALE       CLEAR     75  30  19 N3        30.38F
DUBOIS         FAIR      73  36  25 E7        30.38F
LANDER         SUNNY     81  39  22 N3        30.27F
6HR MIN TEMP:  56; 6HR MAX TEMP:  82;

RIVERTON       SUNNY     78  38  23 MISG      30.27F
6HR MIN TEMP:  55; 6HR MAX TEMP:  80;

CASPER         SUNNY     83  32  16 S9        30.24F
6HR MIN TEMP:  49; 6HR MAX TEMP:  84;

DOUGLAS        SUNNY     84  34  16 VRB6      30.24F
6HR MIN TEMP:  50; 6HR MAX TEMP:  86;


$$
WYZ021-027>030-104>119-011900-
SOUTHERN WYOMING

CITY           SKY/WX    TMP DP  RH WIND       PRES   REMARKS
EVANSTON       MOSUNNY   74  43  32 N8        30.36F
6HR MIN TEMP:  52; 6HR MAX TEMP:  74;

KEMMERER       CLEAR    N/A N/A N/A E8        30.39S
FORT BRIDGER   FAIR      72  42  33 NE3       30.40S
ROCK SPRINGS   SUNNY     77  36  22 CALM      30.34F
6HR MIN TEMP:  52; 6HR MAX TEMP:  78;

DIXON          FAIR      78  32  19 S6        30.32S
RAWLINS        SUNNY     76  33  21 E8        30.35S
6HR MIN TEMP:  46; 6HR MAX TEMP:  76;

SARATOGA       FAIR      70  39  32 CALM      30.36F
LARAMIE        SUNNY     70  40  33 SE17      30.38S
6HR MIN TEMP:  43; 6HR MAX TEMP:  70;

CHEYENNE       SUNNY     75  42  30 S8G16     30.32F
6HR MIN TEMP:  51; 6HR MAX TEMP:  75;

TORRINGTON     SUNNY     84  46  26 CALM      30.19F
6HR MIN TEMP:  51; 6HR MAX TEMP:  84;

PINE BLUFFS    MOCLDY    77  43  29 S10       30.27F

$$


USA.gov is the U.S. government's official web portal to all federal, state and local government web resources and services.